Regional Weather Roundup
Issued by NWS

Home | Current Version | Previous Version | Graphics & Text | Print | Product List | Glossary On
Versions: 1 2 3 4 5 6 7 8 9 10 11 12 13 14 15 16 17 18 19 20 21 22 23 24 25 26 27 28 29 30 31 32 33 34 35 36 37 38 39 40 41 42 43 44 45 46 47 48 49 50
000
ASUS43 KFSD 030002
RWRSD

WEATHER ROUNDUP FOR SOUTH DAKOTA
NATIONAL WEATHER SERVICE SIOUX FALLS SD
700 PM CDT THU JUL 02 2015

NOTE: "FAIR" INDICATES FEW OR NO CLOUDS BELOW 12,000 FEET WITH NO
SIGNIFICANT WEATHER AND/OR OBSTRUCTIONS TO VISIBILITY.


SDZ001>005-009-010-012>017-030100-
NORTHWEST AND NORTH CENTRAL SOUTH DAKOTA

CITY           SKY/WX    TMP DP  RH WIND       PRES   REMARKS
BUFFALO          N/A     79  56  45 N8        30.00S
FAITH            N/A     77  57  50 N15       30.02R
MOBRIDGE       MOSUNNY   79  66  64 N6        29.94F HAZE
$$

SDZ012>016-024>037-041>051-057-063-072>074-030100-
SOUTHWEST AND SOUTH CENTRAL SOUTH DAKOTA

CITY           SKY/WX    TMP DP  RH WIND       PRES   REMARKS
RAPID CTY ARPT SUNNY     78  57  48 N20       30.06S
PIERRE         SUNNY     78  64  61 NE6       29.95F
CUSTER         SUNNY     73  48  41 N8        30.19S
ELLSWORTH AFB  MOSUNNY   79  56  44 N20       30.06S
PHILIP         PTSUNNY   79  59  50 N9        29.99S
PINE RIDGE     MOSUNNY   79  57  46 N10       30.06S
WINNER         FAIR      77  61  57 NE9       29.98R
$$

SDZ004>011-016>023-039-040-030100-
NORTHEAST SOUTH DAKOTA

CITY           SKY/WX    TMP DP  RH WIND       PRES   REMARKS
ABERDEEN       SUNNY     72  62  71 S8        29.96F
WATERTOWN      SUNNY     73  49  42 S7        29.98S
BROOKINGS      PTSUNNY   72  52  49 S7        30.00F
SISSETON         N/A     74  55  51 S8        29.95S
$$

SDZ017-020-022-023-036>040-048>070-030100-
SOUTHEAST SOUTH DAKOTA

CITY           SKY/WX    TMP DP  RH WIND       PRES   REMARKS
SIOUX FALLS    CLOUDY    69  57  65 E3        29.98F
HURON          SUNNY     70  59  68 S10       29.96F
CHAMBERLAIN    MOSUNNY   71  65  81 E8        29.98R
MITCHELL       PTSUNNY   69  59  70 E8        29.98F
YANKTON        PTSUNNY   68  61  77 SE7       29.96F
$$

ABBREVIATIONS USED IN REMARKS
   TC - TEMPERATURE IN CELSIUS
  WCI - WIND CHILL INDEX
   HX - HEAT INDEX
  VSB - VISIBILITY



USA.gov is the U.S. government's official web portal to all federal, state and local government web resources and services.